www.pogodaiklimat.ru

Погода и климат >> Архив погоды >> Парагвай >> Пуэрто-Касадо


ПОГОДА в Пуэрто-Касадо

  • Прогноз погоды в Пуэрто-Касадо
  • Монитор погоды в Пуэрто-Касадо

АРХИВ ПОГОДЫ в Пуэрто-Касадо

Время (UTC), дата Ветер
(напр.,м/с)
 
Видим.   Явления Облачность Т
(С)
Тd
(С)
f
(%)
Тe
(С)
Тes
(С)
Комфортность P
(гПа)
Po
(гПа)
Тmin
(С)
Tmax
(С)
R
(мм)
R24
(мм)
S
(см)
12 14.03 штиль 0 20 км 10/8 600 м
[Sc Ac As]
+23.4 +22.6 95 +32 +33 очень
душно
1012.1 1002.9 +23.4 3
15 14.03 штиль 0 20 км 10/6 600 м
[Sc Ac As]
+24.6 +22.2 87 +32 +35 очень
душно
1012.7 1003.7
18 14.03 СЗ 2 20 км 9/6 900 м
[Cu med, cong Ac trans]
+29.0 +24.9 79 +42 +45 опасность
перегрева
1011.2 1002.3
21 14.03 штиль 0 20 км 6/6 900 м
[Cu med, cong]
+31.2 +25.3 71 +45 +46 опасность
перегрева
1008.0 999.2
00 15.03 штиль 0 20 км гроза без осадков 10/10 750 м
[Cb cap]
+27.4 +25.5 89 +40 +40 очень
душно
1011.0 1002.1 +31.6
03 15.03 штиль 0 20 км в посл. час дождь {гроза} 9/9 750 м
[Cb cap]
+26.2 +25.7 97 +39 +39 очень
душно
1011.7 1002.7 12
09 15.03 штиль 0 20 км гроза без осадков 10/10 750 м
[Cb cap]
+24.4 +22.4 89 +32 +32 очень
душно
1012.4 1003.5
12 15.03 штиль 0 20 км в посл. час дождь {гроза} 10/4 600 м
[Sc Ac As]
+24.8 +23.7 94 +34 +35 очень
душно
1013.1 1004.1 +23.4 1
15 15.03 С 2 20 км 9/5 900 м
[Cu hum Ac As]
+28.8 +24.7 79 +41 +45 опасность
перегрева
1012.2 1003.3
21 15.03 штиль 0 20 км 8/4 900 м
[Cu med, cong Cs]
+31.4 +25.1 69 +45 +46 опасность
перегрева
1009.7 1000.9
00 16.03 штиль 0 20 км зарница {гроза} 6/3 1200 м
[Cb cap Cs]
+28.8 +25.0 80 +42 +42 опасность
перегрева
1009.5 1000.6 +32.5
03 16.03 штиль 0 20 км зарница {гроза} 6/3 1200 м
[Cb cap Cs]
+27.0 +25.6 92 +40 +40 очень
душно
1009.9 1001.0
09 16.03 Ю 3 10 км гроза, ливневой дождь 10/10 450 м
[Cb cap]
+24.0 +23.4 96 +32 +32 очень
душно
1011.6 1002.6 15
15 16.03 штиль 0 10 км дождь {гроза} 10/10 450 м
[Sc]
+23.4 +22.6 95 +32 +32 очень
душно
1012.0 1003.0
18 16.03 штиль 0 20 км в посл. час дождь 10/10 450 м
[Sc]
+25.6 +23.3 87 +34 +34 очень
душно
1010.1 1001.1 19
21 16.03 Ю 2 20 км в посл. час дождь 10/10 360 м
[Sc]
+24.0 +22.7 92 +31 +31 очень
душно
1009.6 1000.6 15
00 17.03 штиль 0 20 км зарница {гроза} 9/3 1200 м
[Cb cap Ac As]
+23.6 +22.7 95 +31 +31 очень
душно
1008.7 999.7 +28.8 15
06 17.03 штиль 0 15 км гроза, ливневой дождь 10/10 360 м
[Cb cap]
+23.0 +21.7 92 +31 +31 очень
душно
1009.7 1000.6 1
09 17.03 штиль 0 10 км гроза, ливневой дождь 10/10 450 м
[Cb cap]
+23.0 +21.6 92 +31 +31 очень
душно
1010.0 1000.9 8
12 17.03 штиль 0 20 км в посл. час дождь {гроза} 10/6 450 м
[Sc Ac As]
+23.4 +22.8 96 +33 +33 очень
душно
1011.2 1002.1 +22.6 8
15 17.03 штиль 0 20 км 9/5 600 м
[Sc Ac As]
+27.0 +25.4 91 +39 +45 очень
душно
1011.0 1002.1
18 17.03 СВ 3 20 км 9/6 600 м
[Sc Ac As]
+30.8 +25.4 73 +45 +47 опасность
перегрева
1007.8 999.0
21 17.03 СВ 2 20 км 9/6 600 м
[Sc Cs]
+30.2 +24.4 71 +42 +43 опасность
перегрева
1006.8 998.0
00 18.03 штиль 0 20 км гроза без осадков 6/1 1200 м
[Cb cap Cs]
+29.0 +25.2 80 +42 +42 опасность
перегрева
1008.2 999.3 +31.0
03 18.03 штиль 0 20 км 6/3 900 м
[Sc Cs]
+26.8 +25.6 93 +39 +39 очень
душно
1008.6 999.7
12 18.03 штиль 0 20 км в посл. час дождь {гроза} 10/10 300 м
[Sc]
+25.4 +24.7 96 +36 +36 очень
душно
1011.7 1002.7 +9.7 20
15 18.03 штиль 0 20 км 10/9 300 м
[Sc]
+27.4 +25.4 89 +40 +41 очень
душно
1011.7 1002.7
18 18.03 штиль 0 20 км 8/8 900 м
[Cu med, cong]
+29.4 +24.7 76 +42 +46 опасность
перегрева
1009.6 1000.7
21 18.03 штиль 0 20 км 8/8 900 м
[Cu med, cong]
+30.8 +24.1 68 +43 +43 опасность
перегрева
1008.2 999.4
00 19.03 штиль 0 20 км зарница 9/9 600 м
[Cb cap]
+27.6 +25.2 87 +40 +40 очень
душно
1008.6 999.7 +31.2
03 19.03 штиль 0 20 км 6/6 600 м
[Sc]
+26.6 +24.4 88 +37 +37 очень
душно
1009.0 1000.1
06 19.03 штиль 0 20 км 6/6 600 м
[Sc]
+25.2 +23.6 91 +34 +34 очень
душно
1009.4 1000.5
09 19.03 штиль 0 10 км гроза, ливневой дождь 10/10 450 м
[Cb cap]
+24.0 +22.4 91 +31 +31 очень
душно
1009.8 1000.9 7
12 19.03 штиль 0 20 км в посл. час дождь {гроза} 9/6 600 м
[Sc Ac As]
+25.0 +23.5 91 +34 +35 очень
душно
1010.0 1001.1 +24.0 14
15 19.03 штиль 0 20 км 9/5 1000 м
[Cu hum Ac As]
+27.8 +23.8 79 +38 +44 очень
душно
1010.2 1001.3
18 19.03 штиль 0 20 км 8/8 1000 м
[Cu med, cong]
+33.0 +24.7 62 +46 +50 опасность
перегрева
1007.9 999.2
21 19.03 штиль 0 20 км 8/8 1000 м
[Cu med, cong]
+34.4 +24.0 55 +46 +46 опасность
перегрева
1007.1 998.4
00 20.03 Ю 2 20 км зарница {гроза, ливн. осадки} 9/9 600 м
[Cb cap]
+26.6 +24.3 87 +37 +37 очень
душно
1008.4 999.5 +34.4 3
09 20.03 штиль 0 20 км гроза без осадков 10/10 450 м
[Cb cap]
+24.4 +22.3 88 +32 +32 очень
душно
1009.9 1000.9
12 20.03 штиль 0 15 км гроза, ливневой дождь 10/10 450 м
[Cb cap]
+22.0 +20.7 92 +28 +28 душно 1011.5 1002.5 +22.0 33
15 20.03 штиль 0 20 км в посл. час дождь {гроза} 10/6 450 м
[Sc Ac As]
+23.4 +22.7 96 +33 +35 очень
душно
1013.1 1004.0 8
18 20.03 штиль 0 15 км дождь 10/8 450 м
[Sc Ac As]
+24.0 +22.5 91 +31 +32 очень
душно
1012.4 1003.4 1
21 20.03 штиль 0 20 км в посл. час дождь 10/8 450 м
[Sc Ac As]
+24.4 +22.3 88 +32 +32 очень
душно
1012.4 1003.4 1
00 21.03 Ю 2 20 км 9/0 2000 м
[Ac As]
+23.0 +22.8 99 +32 +32 очень
душно
1011.8 1002.7 +26.6 1
03 21.03 штиль 0 20 км 9/9 600 м
[Sc]
+22.8 +21.7 94 +31 +31 очень
душно
1012.3 1003.2
06 21.03 штиль 0 20 км 9/9 600 м
[Sc]
+22.2 +21.9 98 +29 +29 очень
душно
1012.8 1003.7

 

Местоположение метеостанции Пуэрто-Касадо (Парагвай): широта -22.28 долгота -57.86 высота над уровнем моря 87 м.

В архиве по умолчанию представлена погода в Пуэрто-Касадо за последнюю неделю. Архивные данные за месяц целиком и за предыдущие месяцы, начиная с января 2011 года, Вы можете получить, выбрав интересующий диапазон дат из раскрывающегося списка и нажав кнопку "Ввод!".


*Определитесь, кто Вы:
робот инопланетянин человек

Внимание! Время в таблицах - всемирное. Для получения местного времени необходимо прибавить поправку, которая равна -4 ч.

Смотрите также архив погоды в соседних городах и на ближайших метеорологических станциях:

Погода в Порто Муртиньо (Мату-Гросу-ду-Сул, Бразилия) (72 км)
Погода в Бела-Виста (Мату-Гросу-ду-Сул, Бразилия) (137 км)
Погода в Консепсьоне (Парагвай) (138 км)
Погода в Посо Колорадо (Парагвай) (162 км)
Погода в Жардиме (Мату-Гросу-ду-Сул, Бразилия) (199 км)
Погода в Сан-Педро (Парагвай) (213 км)
Погода в Педро-Хуан-Кабальеро (Парагвай) (222 км)
Погода в Понта-Пора (Мату-Гросу-ду-Сул, Бразилия) (224 км)
Погода в Понта-Поране (Мату-Гросу-ду-Сул, Бразилия) (241 км)
Погода в Миранде (Мату-Гросу-ду-Сул, Бразилия) (256 км)

Пояснения к столбцам:

Ветер - указаны скорость ветра в м/с - средняя за 10 мин, порывы в срок и между сроками (в фигурных скобках) и направление, откуда дует ветер: С - северный, СВ - северо-восточный, В - восточный, ЮВ - юго-восточный, Ю - южный, ЮЗ - юго-западный, З - западный, СЗ - северо-западный.
Видимость - горизонтальная дальность видимости в метрах или километрах. При видимости от 1 до 10 км при отсутствии осадков обычно наблюдается дымка, при ухудшении видимости до 1 км и менее - туман. В сухую погоду видимость может ухудшаться дымом, пылью или мглою.
Явления - указаны атмосферные явления, наблюдавшиеся в срок или в последний час перед сроком; фигурными скобками обозначены явления, наблюдавшиеся между сроками (за 1-3 часа до срока); квадратными скобками обозначены град или гололедные отложения с указанием их диаметра в мм.
Облачность - указаны через наклонную черту общая и нижняя облачность в баллах и высота нижней границы облаков в метрах; квадратными скобками обозначены формы облаков: Ci - перистые, Cs - перисто-слоистые, Cc - перисто-кучевые, Ac - высококучевые, As - высокослоистые, Sc - слоисто-кучевые, Ns - слоисто-дождевые, Cu - кучевые, Cb - кучево-дождевые. Подробнее классификацию облаков см. в Атласе облаков (PDF).
T - Температура воздуха - температура, измеренная на высоте 2 м над землей.
Td - Температура точки росы - температура, при понижении до которой содержащийся в воздухе водяной пар достигнет насыщения.
f - Относительная влажность воздуха - влажноcть воздуха, измеренная на высоте 2 м над землей.
Te - Эффективная температура - температура, которую ощущает одетый по сезону человек в тени. Характеристика душности погоды. При расчете учитывается влияние влажности воздуха и скорости ветра на теплоощущения человека.
Tes - Эффективная температура на солнце - температура, которую ощущает человек, с поправкой на солнечный нагрев. Характеристика знойности погоды. Зависит от высоты солнца над горизонтом, облачности и скорости ветра. Ночью, в пасмурную погоду, а также при ветре 12 м/с и более поправка равна нулю.
P - Атмосферное давление - приведенное к уровню моря атмосферное давление.
Po - Атмосферное давление - измеренное на уровне метеостанции атмосферное давление.
Tmin - Минимальная температура - минимум температуры воздуха на высоте 2 м над землей.
Tmax - Максимальная температура - максимум температуры воздуха на высоте 2 м над землей.
R - Количество осадков - Количество выпавших осадков за период времени, мм. При наведении курсора мыши на число - период времени, за который выпало указанное количество осадков.
R24 - Количество осадков - Количество выпавших осадков за 24 часа, мм.
S - Снежный покров - Высота снежного покрова, см. При наведении курсора мыши на число - состояние снежного покрова и степень покрытия местности в баллах.